Regional Weather Roundup
Issued by NWS Albany, NY

Home | Current Version | Previous Version | Graphics & Text | Print | Product List | Glossary Off
Versions: 1 2 3 4 5 6 7 8 9 10 11 12 13 14 15 16 17 18 19 20 21 22 23 24 25 26 27

000
ASUS41 KALY 230110
RWRALY

NEW YORK STATE HOURLY WEATHER ROUNDUP
NATIONAL WEATHER SERVICE ALBANY NY
900 PM EDT THU JUN 22 2017

NOTE: "FAIR" INDICATES FEW OR NO CLOUDS BELOW 12,000 FEET WITH NO
SIGNIFICANT WEATHER AND/OR NO OBSTRUCTIONS TO VISIBILITY.

NYZ032-033-038>043-046>054-057>066-NYZ062>081-082-084-230200-
EAST


CITY           SKY/WX    TMP DP  RH WIND       PRES   REMARKS
ALBANY         CLOUDY    76  59  55 CALM      29.86F
GLENS FALLS    CLOUDY    71  60  68 S3        29.86F
POUGHKEEPSIE   CLEAR     77  64  64 SE5       29.87F
NEWBURGH       MOCLDY    79  66  65 W9        29.91S
MONTGOMERY     CLEAR     74  66  76 CALM      29.89S
WHITE PLAINS   PTCLDY    73  61  64 S6        29.91S
ISLIP          MOCLDY    73  66  78 S8        29.93S
NEW YORK CITY  CLOUDY    77  68  73 VRB7      29.90S
CENTRAL PARK   PTCLDY    78  65  63 CALM      29.93S
$$

NYZ005>009-017-018-044>046-055-056-230200-
CENTRAL


CITY           SKY/WX    TMP DP  RH WIND       PRES   REMARKS
FULTON         CLOUDY    71  60  68 VRB6      29.84S
SYRACUSE       CLOUDY    73  59  61 CALM      29.82F
ROME           CLOUDY    71  60  68 E7        29.85F
ELMIRA         NOT AVBL
BINGHAMTON     CLEAR     72  63  73 SW6       29.92S
MONTICELLO     CLOUDY    73  63  68 SW5       29.95S
$$

NYZ026>034-041>043-087-230200-
NORTH


CITY           SKY/WX    TMP DP  RH WIND       PRES   REMARKS
WATERTOWN      CLOUDY    68  61  78 CALM      29.81F
FORT DRUM      NOT AVBL
OGDENSBURG     MOCLDY    66  60  79 CALM      29.81F
MASSENA        CLOUDY    69  58  67 CALM      29.82F
SARANAC LAKE   CLOUDY    64  56  75 CALM      29.88F
PLATTSBURGH    PTCLDY    67  58  72 CALM      29.84S
$$

NYZ001>004-010>016-019>021-085-230200-
WEST


CITY           SKY/WX    TMP DP  RH WIND       PRES   REMARKS
NIAGARA FALLS  MOCLDY    79  62  56 SW10      29.81F
BUFFALO        CLOUDY    75  66  73 SW9       29.84S
DUNKIRK        PTCLDY    78  68  71 S7        29.84F
JAMESTOWN      CLOUDY    73  66  78 S7        29.91F
WELLSVILLE     CLOUDY    73  67  81 SW7       29.96F
ROCHESTER      CLOUDY    77  68  73 SW7       29.83S
PENN YAN       CLOUDY    77  64  64 S9        29.87F
$$

             KEY
       WCI = WIND CHILL INDEX
       VSB = VISIBILITY
       HX  = HEAT INDEX
$$




USA.gov is the U.S. government's official web portal to all federal, state and local government web resources and services.